Location: Alfortville
(48.8058°N, 2.4204°E)
Time: 03:45:12
(UTC+00:00)

USA 229 DEB - Pass Details

Date: 03 June 2022
Orbit: 934 x 1278 km, 63.4° (Epoch: 24 May)

Event Time Altitude Azimuth Distance (km) Brightness Sun altitude
Rises 23:49:57 0° 312° (NW) 4,015 7.3 -18.8°
Reaches altitude 10° 23:53:07 10° 300° (WNW) 3,103 6.5 -18.8°
Maximum altitude 23:58:54 25° 249° (WSW) 2,249 5.2 -18.8°
Enters shadow 00:01:47 20° 219° (SW) 2,524 5.2 -18.7°
